IBE4FT LEBL-LEMD

Flight info

Callsign IBE4FT
Flight time 0h 55m
Altitude 29000
Route SENIA Z596 NEXAS N975 ADUXO
Aircraft A20N/M-SDE2E3FGHIRWXY/LB1

Departure

Time 2026-05-04 20:14
Airport Josep Tarradellas Barcelona-El Prat Airport (LEBL)

Arrival

Time 2026-05-04 21:09
Airport Adolfo Suárez Madrid–Barajas Airport (LEMD)
Time Latitude Longitude Altitude Speed Heading
2026-05-04 18:56 41.30133 2.07717 20 ft 0 kts 17°
2026-05-04 19:02 41.30134 2.07717 20 ft 5 kts 17°
2026-05-04 19:02 41.30133 2.07717 20 ft 0 kts 17°
2026-05-04 19:06 41.30134 2.07717 20 ft 0 kts 17°
2026-05-04 19:09 41.30133 2.07717 20 ft 0 kts 17°
2026-05-04 19:50 41.30131 2.07716 20 ft 0 kts 17°
2026-05-04 19:50 41.30127 2.07715 20 ft 1 kts 17°
2026-05-04 19:50 41.30122 2.07713 -1 ft 1 kts 17°
2026-05-04 19:51 41.30116 2.07710 3 ft 1 kts 17°
2026-05-04 19:51 41.30109 2.07708 5 ft 1 kts 17°
2026-05-04 19:51 41.30101 2.07705 28 ft 1 kts 17°
2026-05-04 19:51 41.30094 2.07702 28 ft 1 kts 17°
2026-05-04 19:52 41.30085 2.07698 23 ft 3 kts 17°
2026-05-04 19:52 41.30067 2.07691 19 ft 3 kts 17°
2026-05-04 19:52 41.30045 2.07681 20 ft 3 kts 31°
2026-05-04 19:52 41.30025 2.07656 20 ft 0 kts 57°
2026-05-04 20:03 41.30027 2.07662 19 ft 7 kts 58°
2026-05-04 20:03 41.30032 2.07673 19 ft 0 kts 60°
2026-05-04 20:04 41.30034 2.07678 19 ft 3 kts 60°
2026-05-04 20:04 41.30058 2.07735 18 ft 10 kts 65°
2026-05-04 20:05 41.30094 2.07841 18 ft 15 kts 65°
2026-05-04 20:05 41.30142 2.07980 20 ft 18 kts 66°
2026-05-04 20:05 41.30196 2.08143 18 ft 21 kts 67°
2026-05-04 20:05 41.30244 2.08289 21 ft 16 kts 66°
2026-05-04 20:06 41.30279 2.08431 18 ft 13 kts 110°
2026-05-04 20:06 41.30227 2.08473 18 ft 9 kts 155°
2026-05-04 20:06 41.30178 2.08524 19 ft 9 kts 135°
2026-05-04 20:06 41.30163 2.08571 18 ft 2 kts 44°
2026-05-04 20:07 41.30167 2.08577 18 ft 1 kts 44°
2026-05-04 20:07 41.30218 2.08636 18 ft 17 kts 45°
2026-05-04 20:07 41.30286 2.08814 20 ft 24 kts 67°
2026-05-04 20:07 41.30355 2.09030 18 ft 27 kts 67°
2026-05-04 20:08 41.30438 2.09252 19 ft 27 kts 64°
2026-05-04 20:08 41.30518 2.09488 20 ft 29 kts 66°
2026-05-04 20:08 41.30581 2.09675 19 ft 21 kts 66°
2026-05-04 20:08 41.30642 2.09858 18 ft 23 kts 66°
2026-05-04 20:09 41.30711 2.10059 18 ft 25 kts 65°
2026-05-04 20:09 41.30751 2.10175 19 ft 3 kts 65°
2026-05-04 20:09 41.30763 2.10209 19 ft 5 kts 65°
2026-05-04 20:09 41.30761 2.10263 18 ft 7 kts 117°
2026-05-04 20:10 41.30722 2.10305 17 ft 0 kts 155°
2026-05-04 20:12 41.30721 2.10306 17 ft 1 kts 155°
2026-05-04 20:12 41.30693 2.10323 17 ft 6 kts 155°
2026-05-04 20:12 41.30662 2.10341 16 ft 6 kts 155°
2026-05-04 20:13 41.30610 2.10371 16 ft 9 kts 168°
2026-05-04 20:13 41.30558 2.10331 16 ft 10 kts 248°
2026-05-04 20:13 41.30509 2.10184 18 ft 44 kts 244°
2026-05-04 20:13 41.30267 2.09480 18 ft 120 kts 245°
2026-05-04 20:14 41.29856 2.08288 279 ft 154 kts 245°
2026-05-04 20:14 41.29379 2.06944 1069 ft 161 kts 241°
2026-05-04 20:14 41.28554 2.06027 1901 ft 164 kts 201°
2026-05-04 20:14 41.27287 2.05977 2103 ft 214 kts 170°
2026-05-04 20:15 41.25849 2.06810 2888 ft 223 kts 152°
2026-05-04 20:15 41.24497 2.07672 4216 ft 210 kts 165°
2026-05-04 20:15 41.22866 2.08145 4138 ft 259 kts 188°
2026-05-04 20:15 41.21143 2.07660 4778 ft 276 kts 197°
2026-05-04 20:16 41.19181 2.06943 5132 ft 302 kts 202°
2026-05-04 20:16 41.17177 2.05812 5573 ft 325 kts 209°
2026-05-04 20:16 41.15141 2.04258 5830 ft 352 kts 214°
2026-05-04 20:16 41.13680 2.03104 5938 ft 371 kts 212°
2026-05-04 20:17 41.11372 2.01439 6391 ft 388 kts 210°
2026-05-04 20:17 41.08990 1.99636 7046 ft 391 kts 212°
2026-05-04 20:17 41.06652 1.97971 8582 ft 375 kts 209°
2026-05-04 20:17 41.04448 1.96106 9354 ft 381 kts 222°
2026-05-04 20:18 41.02729 1.93455 10300 ft 376 kts 239°
2026-05-04 20:18 41.01756 1.90384 11780 ft 361 kts 255°
2026-05-04 20:18 41.01542 1.87134 13266 ft 351 kts 273°
2026-05-04 20:18 41.02124 1.84020 14465 ft 352 kts 290°
2026-05-04 20:19 41.03300 1.81118 15118 ft 365 kts 295°
2026-05-04 20:19 41.04393 1.77987 15252 ft 386 kts 286°
2026-05-04 20:19 41.05072 1.74450 15263 ft 408 kts 277°
2026-05-04 20:19 41.05369 1.70672 15838 ft 414 kts 271°
2026-05-04 20:20 41.05476 1.66855 16640 ft 417 kts 269°
2026-05-04 20:20 41.05508 1.62996 17431 ft 421 kts 268°
2026-05-04 20:20 41.05517 1.59100 18202 ft 425 kts 267°
2026-05-04 20:20 41.05484 1.55173 18895 ft 427 kts 264°
2026-05-04 20:21 41.05115 1.51308 19948 ft 416 kts 257°
2026-05-04 20:21 41.04426 1.47677 21419 ft 397 kts 251°
2026-05-04 20:21 41.02846 1.40987 24060 ft 370 kts 251°
2026-05-04 20:22 41.02082 1.37715 24549 ft 374 kts 251°
2026-05-04 20:22 41.01308 1.34412 25017 ft 377 kts 251°
2026-05-04 20:22 41.00527 1.31091 25438 ft 379 kts 251°
2026-05-04 20:22 40.99739 1.27750 25858 ft 381 kts 251°
2026-05-04 20:23 40.98946 1.24394 26269 ft 383 kts 251°
2026-05-04 20:23 40.98147 1.21016 26679 ft 386 kts 251°
2026-05-04 20:23 40.97343 1.17621 27073 ft 388 kts 251°
2026-05-04 20:23 40.96533 1.14208 27477 ft 390 kts 251°
2026-05-04 20:24 40.95716 1.10776 27808 ft 393 kts 251°
2026-05-04 20:24 40.94894 1.07322 28185 ft 394 kts 251°
2026-05-04 20:24 40.94069 1.03855 28543 ft 396 kts 251°
2026-05-04 20:24 40.93238 1.00372 28855 ft 398 kts 251°
2026-05-04 20:25 40.91567 0.93382 28944 ft 398 kts 251°
2026-05-04 20:25 40.89908 0.86466 28937 ft 394 kts 251°
2026-05-04 20:26 40.88234 0.79513 28946 ft 395 kts 251°
2026-05-04 20:26 40.87066 0.72484 28950 ft 393 kts 262°
2026-05-04 20:27 40.86937 0.65246 28950 ft 395 kts 268°
2026-05-04 20:27 40.86996 0.57976 28954 ft 396 kts 268°
2026-05-04 20:28 40.87042 0.50708 28954 ft 395 kts 268°
2026-05-04 20:28 40.87084 0.43441 28963 ft 396 kts 268°
2026-05-04 20:29 40.87121 0.36170 28964 ft 395 kts 268°
2026-05-04 20:29 40.87154 0.28906 28969 ft 395 kts 268°
2026-05-04 20:30 40.87185 0.21650 28971 ft 394 kts 268°
2026-05-04 20:30 40.87206 0.14390 28980 ft 395 kts 268°
2026-05-04 20:31 40.87224 0.07134 28976 ft 395 kts 268°
2026-05-04 20:31 40.87239 -0.00120 28985 ft 395 kts 268°
2026-05-04 20:32 40.87249 -0.07350 28974 ft 393 kts 268°
2026-05-04 20:32 40.87255 -0.14584 28979 ft 394 kts 268°
2026-05-04 20:33 40.87256 -0.21815 28982 ft 394 kts 268°
2026-05-04 20:33 40.87252 -0.29047 28982 ft 394 kts 268°
2026-05-04 20:34 40.87244 -0.36277 28984 ft 394 kts 268°
2026-05-04 20:34 40.87231 -0.43509 28985 ft 393 kts 267°
2026-05-04 20:35 40.87214 -0.50734 28988 ft 393 kts 267°
2026-05-04 20:35 40.87192 -0.57959 28991 ft 393 kts 267°
2026-05-04 20:36 40.87166 -0.65184 29000 ft 393 kts 267°
2026-05-04 20:36 40.87135 -0.72405 29001 ft 393 kts 267°
2026-05-04 20:37 40.86662 -0.79511 29002 ft 390 kts 258°
2026-05-04 20:37 40.85143 -0.86365 28999 ft 389 kts 250°
2026-05-04 20:38 40.83280 -0.93078 28997 ft 389 kts 250°
2026-05-04 20:38 40.81427 -0.99790 29004 ft 389 kts 250°
2026-05-04 20:39 40.79568 -1.06494 29006 ft 389 kts 250°
2026-05-04 20:39 40.77700 -1.13204 29003 ft 389 kts 250°
2026-05-04 20:40 40.75844 -1.19851 29009 ft 383 kts 250°
2026-05-04 20:40 40.73993 -1.26468 29009 ft 385 kts 250°
2026-05-04 20:41 40.72134 -1.33088 29005 ft 385 kts 250°
2026-05-04 20:41 40.70275 -1.39697 29005 ft 384 kts 250°
2026-05-04 20:42 40.68412 -1.46301 29006 ft 384 kts 250°
2026-05-04 20:42 40.66545 -1.52905 29017 ft 385 kts 250°
2026-05-04 20:43 40.64677 -1.59496 29007 ft 384 kts 249°
2026-05-04 20:43 40.62803 -1.66088 29008 ft 384 kts 249°
2026-05-04 20:44 40.60926 -1.72674 29011 ft 384 kts 249°
2026-05-04 20:44 40.59043 -1.79262 29009 ft 384 kts 249°
2026-05-04 20:45 40.57160 -1.85840 29007 ft 384 kts 249°
2026-05-04 20:45 40.55271 -1.92416 29012 ft 384 kts 249°
2026-05-04 20:46 40.53385 -1.98968 29005 ft 384 kts 249°
2026-05-04 20:46 40.51446 -2.05497 29002 ft 383 kts 246°
2026-05-04 20:47 40.48822 -2.11601 29001 ft 384 kts 239°
2026-05-04 20:47 40.46022 -2.17577 28997 ft 384 kts 240°
2026-05-04 20:48 40.43243 -2.23521 28993 ft 385 kts 240°
2026-05-04 20:48 40.40441 -2.29499 29013 ft 385 kts 240°
2026-05-04 20:49 40.37656 -2.35426 28988 ft 381 kts 240°
2026-05-04 20:49 40.34868 -2.41349 28985 ft 381 kts 240°
2026-05-04 20:50 40.33480 -2.44292 28750 ft 378 kts 240°
2026-05-04 20:50 40.32099 -2.47219 28196 ft 377 kts 240°
2026-05-04 20:50 40.30723 -2.50133 27548 ft 375 kts 239°
2026-05-04 20:50 40.29354 -2.53028 26904 ft 373 kts 239°
2026-05-04 20:51 40.27999 -2.55915 26274 ft 371 kts 242°
2026-05-04 20:51 40.26916 -2.58961 25646 ft 368 kts 250°
2026-05-04 20:51 40.26253 -2.62195 25014 ft 368 kts 259°
2026-05-04 20:51 40.26019 -2.65528 24420 ft 368 kts 267°
2026-05-04 20:52 40.26022 -2.68891 23676 ft 371 kts 268°
2026-05-04 20:52 40.26019 -2.72274 22626 ft 378 kts 268°
2026-05-04 20:52 40.26008 -2.75776 21543 ft 385 kts 268°
2026-05-04 20:52 40.25996 -2.79302 20508 ft 390 kts 268°
2026-05-04 20:53 40.25981 -2.82870 19526 ft 394 kts 268°
2026-05-04 20:53 40.25966 -2.86472 18566 ft 398 kts 268°
2026-05-04 20:53 40.25950 -2.90104 17530 ft 401 kts 268°
2026-05-04 20:53 40.25934 -2.93760 16483 ft 403 kts 268°
2026-05-04 20:54 40.25916 -2.97435 15470 ft 404 kts 268°
2026-05-04 20:54 40.25897 -3.01112 14557 ft 403 kts 268°
2026-05-04 20:54 40.25877 -3.04772 13724 ft 401 kts 268°
2026-05-04 20:54 40.25854 -3.08407 12822 ft 398 kts 268°
2026-05-04 20:55 40.25839 -3.12009 11973 ft 394 kts 270°
2026-05-04 20:55 40.26070 -3.15580 11139 ft 393 kts 277°
2026-05-04 20:55 40.26539 -3.19091 10338 ft 390 kts 278°
2026-05-04 20:55 40.27005 -3.22579 9542 ft 387 kts 279°
2026-05-04 20:56 40.27460 -3.26023 8763 ft 382 kts 279°
2026-05-04 20:56 40.27938 -3.29417 8178 ft 374 kts 283°
2026-05-04 20:56 40.28805 -3.32544 7951 ft 358 kts 295°
2026-05-04 20:56 40.30082 -3.35294 7485 ft 351 kts 306°
2026-05-04 20:57 40.31677 -3.37659 7178 ft 336 kts 314°
2026-05-04 20:57 40.33382 -3.39605 7012 ft 315 kts 320°
2026-05-04 20:57 40.35060 -3.41295 6937 ft 292 kts 321°
2026-05-04 20:57 40.36666 -3.42710 7079 ft 265 kts 334°
2026-05-04 20:58 40.38379 -3.43114 7302 ft 240 kts
2026-05-04 20:58 40.39951 -3.42969 7509 ft 217 kts
2026-05-04 20:58 40.41448 -3.42806 7483 ft 215 kts
2026-05-04 20:58 40.42945 -3.42644 7185 ft 218 kts
2026-05-04 20:59 40.44477 -3.42508 6767 ft 224 kts
2026-05-04 20:59 40.46060 -3.42383 6304 ft 232 kts
2026-05-04 20:59 40.47672 -3.42267 5842 ft 238 kts
2026-05-04 20:59 40.49280 -3.41820 5500 ft 239 kts 26°
2026-05-04 21:00 40.50515 -3.40387 5165 ft 240 kts 53°
2026-05-04 21:00 40.51430 -3.38578 5024 ft 239 kts 56°
2026-05-04 21:00 40.52047 -3.36554 5003 ft 242 kts 83°
2026-05-04 21:00 40.51805 -3.34374 5001 ft 244 kts 115°
2026-05-04 21:01 40.50751 -3.32651 4999 ft 245 kts 147°
2026-05-04 21:01 40.49182 -3.31877 5004 ft 243 kts 178°
2026-05-04 21:01 40.47552 -3.32269 5004 ft 239 kts 210°
2026-05-04 21:01 40.46334 -3.33701 4997 ft 236 kts 242°
2026-05-04 21:02 40.45760 -3.35700 4999 ft 235 kts 255°
2026-05-04 21:02 40.45300 -3.37755 5000 ft 234 kts 255°
2026-05-04 21:02 40.44794 -3.39787 5001 ft 234 kts 252°
2026-05-04 21:02 40.44195 -3.41780 4993 ft 235 kts 240°
2026-05-04 21:03 40.43034 -3.43279 5001 ft 239 kts 209°
2026-05-04 21:03 40.41421 -3.43790 5001 ft 243 kts 179°
2026-05-04 21:03 40.40325 -3.43495 4998 ft 245 kts 158°
2026-05-04 21:03 40.38340 -3.41988 4997 ft 247 kts 149°
2026-05-04 21:04 40.37377 -3.41202 4968 ft 245 kts 151°
2026-05-04 21:04 40.35784 -3.40525 4699 ft 241 kts 181°
2026-05-04 21:04 40.34182 -3.40977 4334 ft 236 kts 212°
2026-05-04 21:04 40.32936 -3.42297 4058 ft 227 kts 235°
2026-05-04 21:05 40.32356 -3.44151 4003 ft 226 kts 268°
2026-05-04 21:05 40.32646 -3.46070 3989 ft 203 kts 302°
2026-05-04 21:05 40.33559 -3.47282 3985 ft 175 kts 323°
2026-05-04 21:05 40.34589 -3.47927 3894 ft 168 kts 355°
2026-05-04 21:06 40.35759 -3.47774 3846 ft 170 kts
2026-05-04 21:06 40.37046 -3.48028 3351 ft 214 kts 339°
2026-05-04 21:06 40.38464 -3.48806 3162 ft 212 kts 337°
2026-05-04 21:06 40.39705 -3.49455 3122 ft 177 kts 336°
2026-05-04 21:07 40.40798 -3.50059 2792 ft 166 kts 333°
2026-05-04 21:07 40.41763 -3.50802 2524 ft 152 kts 324°
2026-05-04 21:07 40.42569 -3.51565 2389 ft 136 kts 322°
2026-05-04 21:07 40.43307 -3.52313 2264 ft 138 kts 322°
2026-05-04 21:08 40.44134 -3.53166 2298 ft 153 kts 321°
2026-05-04 21:08 40.44978 -3.54024 2117 ft 170 kts 320°
2026-05-04 21:08 40.45937 -3.54991 2052 ft 176 kts 320°
2026-05-04 21:08 40.46972 -3.56053 1992 ft 185 kts 321°
2026-05-04 21:09 40.47868 -3.56978 1996 ft 138 kts 322°
2026-05-04 21:09 40.48352 -3.57466 1999 ft 34 kts 326°
2026-05-04 21:09 40.48443 -3.57601 1994 ft 7 kts 285°
2026-05-04 21:09 40.48454 -3.57643 1994 ft 4 kts 291°
2026-05-04 21:10 40.48458 -3.57658 1994 ft 0 kts 291°
2026-05-04 21:10 40.48461 -3.57668 1994 ft 4 kts 291°
2026-05-04 21:10 40.48483 -3.57744 1991 ft 13 kts 287°
2026-05-04 21:10 40.48498 -3.57849 1992 ft 14 kts 317°
2026-05-04 21:11 40.48513 -3.57960 1998 ft 14 kts 269°
2026-05-04 21:11 40.48513 -3.58062 2002 ft 11 kts 269°
2026-05-04 21:11 40.48512 -3.58134 2005 ft 8 kts 269°
2026-05-04 21:11 40.48512 -3.58225 2009 ft 12 kts 269°
2026-05-04 21:12 40.48511 -3.58350 2013 ft 15 kts 269°
2026-05-04 21:12 40.48511 -3.58479 2017 ft 14 kts 269°
2026-05-04 21:12 40.48510 -3.58623 2026 ft 18 kts 269°
2026-05-04 21:12 40.48510 -3.58763 2027 ft 14 kts 278°
2026-05-04 21:13 40.48599 -3.58812 2022 ft 16 kts 10°
2026-05-04 21:13 40.48717 -3.58809 2025 ft 19 kts 360°
2026-05-04 21:13 40.48759 -3.58842 2027 ft 6 kts 288°
2026-05-04 21:13 40.48807 -3.58873 2022 ft 11 kts
2026-05-04 21:14 40.48875 -3.58886 2027 ft 6 kts 306°
2026-05-04 21:14 40.48878 -3.58901 2031 ft 3 kts 283°
2026-05-04 21:14 40.48879 -3.58946 2025 ft 3 kts 269°
2026-05-04 21:14 40.48878 -3.58965 2029 ft 0 kts 267°